Location: Oberkirch
(48.5323°N, 8.0787°E)
Time: 20:05:03
(UTC+00:00)

SR - Pass Details

Date: 22 February 2026
Orbit: 572 x 849 km, 66.7° (Epoch: 11 March)

Event Time Altitude Azimuth Distance (km) Brightness Sun altitude
Exits shadow 04:22:20 32° 324° (NW) 1,060 ? -20.6°
Drops below altitude 10° 04:26:13 10° 22° (NNE) 2,035 ? -20.0°
Sets 04:28:49 0° 32° (NNE) 2,996 ? -19.6°
